{"data":{"norad_id":56537,"epoch":"2026-09-20T04:49:05.910240Z","epoch_age_seconds":140629,"freshness":"FRESH","line1":"1 56537U 23065AL  26263.20076285  .00000013  00000+0  99779-5 0  9990","line2":"2 56537  43.0021 208.1993 0000826 268.9371  91.1386 15.27575393186181","mean_motion":15.27575393,"eccentricity":8.26e-5,"inclination_deg":43.0021,"raan_deg":208.1993,"arg_perigee_deg":268.9371,"mean_anomaly_deg":91.1386,"bstar":9.9779e-6,"rev_number":18618,"period_min":94.267033011836,"perigee_km":482.49615597868,"apogee_km":483.62962620069,"semimajor_km":6861.1998910897,"source":"CELESTRAK","updated_at":"2026-09-21T09:00:33.476105Z"}}